PPDSL SSHZ-SSFB

Flight info

Callsign PPDSL
Flight time 0h 48m
Altitude 95000
Route DCT 2722S05405W 2646S05330W DCT
Aircraft C208/L-SDFGR/C

Departure

Time 2026-04-14 15:39
Airport Walter Bündchen Airport (SSHZ)

Arrival

Time 2026-04-14 16:28
Airport Paulo Abdala Airport (SSFB)
Time Latitude Longitude Altitude Speed Heading
2026-04-14 15:31 -27.64055 -54.33809 1026 ft 0 kts 137°
2026-04-14 15:37 -27.64049 -54.33790 1027 ft 4 kts 21°
2026-04-14 15:37 -27.64040 -54.33782 1027 ft 0 kts 49°
2026-04-14 15:37 -27.64035 -54.33771 1031 ft 5 kts 60°
2026-04-14 15:38 -27.64038 -54.33720 1029 ft 13 kts 142°
2026-04-14 15:38 -27.64123 -54.33643 1027 ft 17 kts 141°
2026-04-14 15:38 -27.64177 -54.33568 1027 ft 7 kts 148°
2026-04-14 15:38 -27.64179 -54.33593 1027 ft 11 kts 326°
2026-04-14 15:39 -27.63906 -54.33841 1027 ft 84 kts 322°
2026-04-14 15:39 -27.63443 -54.34340 1210 ft 101 kts 321°
2026-04-14 15:39 -27.62925 -54.34869 1557 ft 99 kts 324°
2026-04-14 15:39 -27.62360 -54.35335 1809 ft 108 kts 332°
2026-04-14 15:40 -27.61605 -54.35370 2033 ft 116 kts 32°
2026-04-14 15:40 -27.60991 -54.34808 2523 ft 113 kts 45°
2026-04-14 15:40 -27.60429 -54.34215 2993 ft 108 kts 44°
2026-04-14 15:40 -27.59876 -54.33633 3347 ft 112 kts 43°
2026-04-14 15:41 -27.59298 -54.33022 3592 ft 116 kts 39°
2026-04-14 15:41 -27.58681 -54.32426 3901 ft 116 kts 37°
2026-04-14 15:41 -27.58076 -54.31813 4224 ft 118 kts 39°
2026-04-14 15:41 -27.57474 -54.31186 4566 ft 117 kts 39°
2026-04-14 15:42 -27.56873 -54.30563 4854 ft 119 kts 38°
2026-04-14 15:42 -27.56265 -54.29928 5119 ft 119 kts 39°
2026-04-14 15:42 -27.55648 -54.29299 5374 ft 121 kts 38°
2026-04-14 15:42 -27.55026 -54.28656 5684 ft 121 kts 40°
2026-04-14 15:43 -27.54397 -54.28018 5937 ft 122 kts 39°
2026-04-14 15:43 -27.53769 -54.27365 6180 ft 124 kts 39°
2026-04-14 15:43 -27.53133 -54.26708 6432 ft 124 kts 40°
2026-04-14 15:43 -27.52494 -54.26054 6679 ft 124 kts 39°
2026-04-14 15:44 -27.51849 -54.25392 6891 ft 126 kts 39°
2026-04-14 15:44 -27.51200 -54.24727 7107 ft 126 kts 39°
2026-04-14 15:44 -27.50565 -54.24072 7313 ft 126 kts 39°
2026-04-14 15:44 -27.49913 -54.23400 7528 ft 127 kts 39°
2026-04-14 15:45 -27.49255 -54.22728 7751 ft 128 kts 39°
2026-04-14 15:45 -27.48600 -54.22052 7967 ft 128 kts 39°
2026-04-14 15:45 -27.47936 -54.21374 8178 ft 129 kts 39°
2026-04-14 15:45 -27.47273 -54.20687 8395 ft 130 kts 40°
2026-04-14 15:46 -27.46599 -54.20001 8603 ft 131 kts 39°
2026-04-14 15:46 -27.45920 -54.19308 8822 ft 132 kts 39°
2026-04-14 15:46 -27.45236 -54.18602 9023 ft 134 kts 40°
2026-04-14 15:46 -27.44545 -54.17893 9252 ft 135 kts 40°
2026-04-14 15:47 -27.43850 -54.17180 9452 ft 135 kts 39°
2026-04-14 15:47 -27.43127 -54.16435 9478 ft 145 kts 40°
2026-04-14 15:47 -27.42372 -54.15659 9496 ft 148 kts 40°
2026-04-14 15:47 -27.41602 -54.14871 9490 ft 152 kts 39°
2026-04-14 15:48 -27.40812 -54.14066 9485 ft 155 kts 40°
2026-04-14 15:48 -27.40013 -54.13246 9488 ft 155 kts 40°
2026-04-14 15:48 -27.39215 -54.12426 9484 ft 156 kts 40°
2026-04-14 15:48 -27.38415 -54.11604 9489 ft 156 kts 40°
2026-04-14 15:49 -27.37610 -54.10782 9487 ft 156 kts 40°
2026-04-14 15:49 -27.36808 -54.09960 9483 ft 156 kts 40°
2026-04-14 15:49 -27.36000 -54.09141 9489 ft 157 kts 40°
2026-04-14 15:49 -27.35189 -54.08305 9484 ft 159 kts 40°
2026-04-14 15:50 -27.34391 -54.07482 9486 ft 158 kts 40°
2026-04-14 15:50 -27.33582 -54.06655 9478 ft 157 kts 39°
2026-04-14 15:50 -27.32770 -54.05834 9483 ft 157 kts 40°
2026-04-14 15:50 -27.31959 -54.05001 9482 ft 158 kts 40°
2026-04-14 15:51 -27.31147 -54.04172 9480 ft 158 kts 39°
2026-04-14 15:51 -27.30337 -54.03341 9486 ft 158 kts 39°
2026-04-14 15:51 -27.29524 -54.02514 9484 ft 158 kts 40°
2026-04-14 15:51 -27.28712 -54.01684 9482 ft 158 kts 40°
2026-04-14 15:52 -27.27900 -54.00851 9484 ft 158 kts 39°
2026-04-14 15:52 -27.27087 -54.00022 9482 ft 157 kts 39°
2026-04-14 15:52 -27.26277 -53.99194 9474 ft 158 kts 38°
2026-04-14 15:52 -27.25470 -53.98372 9483 ft 156 kts 39°
2026-04-14 15:53 -27.24669 -53.97556 9481 ft 155 kts 39°
2026-04-14 15:53 -27.23875 -53.96745 9481 ft 154 kts 39°
2026-04-14 15:53 -27.23079 -53.95937 9480 ft 155 kts 39°
2026-04-14 15:53 -27.22283 -53.95124 9481 ft 155 kts 39°
2026-04-14 15:54 -27.20684 -53.93491 9481 ft 155 kts 39°
2026-04-14 15:54 -27.19881 -53.92674 9478 ft 156 kts 40°
2026-04-14 15:54 -27.19091 -53.91869 9477 ft 156 kts 40°
2026-04-14 15:55 -27.18327 -53.91091 9477 ft 156 kts 40°
2026-04-14 15:55 -27.17519 -53.90264 9479 ft 157 kts 40°
2026-04-14 15:55 -27.17084 -53.89825 9483 ft 157 kts 39°
2026-04-14 15:56 -27.16279 -53.89006 9483 ft 157 kts 40°
2026-04-14 15:56 -27.15475 -53.88181 9481 ft 156 kts 39°
2026-04-14 15:56 -27.14771 -53.87469 9478 ft 156 kts 39°
2026-04-14 15:56 -27.14228 -53.86917 9480 ft 156 kts 39°
2026-04-14 15:58 -27.13784 -53.86464 9475 ft 155 kts 39°
2026-04-14 15:58 -27.12983 -53.85649 9472 ft 155 kts 40°
2026-04-14 15:58 -27.12186 -53.84838 9476 ft 154 kts 40°
2026-04-14 15:58 -27.11389 -53.84030 9468 ft 154 kts 40°
2026-04-14 15:59 -27.10595 -53.83221 9475 ft 154 kts 40°
2026-04-14 15:59 -27.09797 -53.82409 9472 ft 155 kts 40°
2026-04-14 15:59 -27.09008 -53.81606 9478 ft 156 kts 40°
2026-04-14 15:59 -27.08207 -53.80793 9477 ft 155 kts 40°
2026-04-14 16:00 -27.07400 -53.79976 9480 ft 157 kts 40°
2026-04-14 16:00 -27.06584 -53.79144 9482 ft 159 kts 41°
2026-04-14 16:00 -27.05771 -53.78311 9486 ft 158 kts 40°
2026-04-14 16:00 -27.04958 -53.77490 9486 ft 156 kts 40°
2026-04-14 16:01 -27.04145 -53.76669 9486 ft 158 kts 40°
2026-04-14 16:01 -27.03336 -53.75848 9482 ft 156 kts 40°
2026-04-14 16:01 -27.02530 -53.75030 9477 ft 156 kts 40°
2026-04-14 16:01 -27.01724 -53.74213 9482 ft 157 kts 40°
2026-04-14 16:02 -27.00938 -53.73413 9484 ft 158 kts 40°
2026-04-14 16:02 -27.00118 -53.72580 9478 ft 158 kts 40°
2026-04-14 16:02 -26.99301 -53.71748 9481 ft 160 kts 40°
2026-04-14 16:02 -26.98480 -53.70919 9490 ft 159 kts 40°
2026-04-14 16:03 -26.97658 -53.70092 9484 ft 159 kts 40°
2026-04-14 16:03 -26.96840 -53.69255 9481 ft 159 kts 40°
2026-04-14 16:03 -26.96016 -53.68423 9477 ft 159 kts 40°
2026-04-14 16:03 -26.95211 -53.67609 9475 ft 158 kts 41°
2026-04-14 16:04 -26.94395 -53.66780 9481 ft 159 kts 40°
2026-04-14 16:04 -26.93577 -53.65953 9476 ft 158 kts 41°
2026-04-14 16:04 -26.92761 -53.65129 9481 ft 157 kts 40°
2026-04-14 16:04 -26.91952 -53.64304 9470 ft 158 kts 40°
2026-04-14 16:05 -26.91142 -53.63490 9482 ft 157 kts 40°
2026-04-14 16:05 -26.90333 -53.62672 9479 ft 157 kts 41°
2026-04-14 16:05 -26.89516 -53.61847 9488 ft 158 kts 40°
2026-04-14 16:05 -26.88698 -53.61013 9482 ft 160 kts 40°
2026-04-14 16:06 -26.87872 -53.60179 9485 ft 160 kts 40°
2026-04-14 16:06 -26.87043 -53.59346 9480 ft 160 kts 40°
2026-04-14 16:06 -26.86223 -53.58514 9483 ft 159 kts 40°
2026-04-14 16:06 -26.85403 -53.57688 9481 ft 159 kts 41°
2026-04-14 16:07 -26.84584 -53.56862 9482 ft 158 kts 41°
2026-04-14 16:07 -26.83768 -53.56032 9485 ft 158 kts 40°
2026-04-14 16:07 -26.82950 -53.55209 9483 ft 158 kts 40°
2026-04-14 16:07 -26.82131 -53.54381 9481 ft 158 kts 41°
2026-04-14 16:08 -26.81313 -53.53554 9479 ft 158 kts 40°
2026-04-14 16:08 -26.80505 -53.52741 9482 ft 158 kts 40°
2026-04-14 16:08 -26.79686 -53.51913 9484 ft 159 kts 40°
2026-04-14 16:08 -26.78866 -53.51088 9484 ft 159 kts 40°
2026-04-14 16:09 -26.78039 -53.50275 9481 ft 157 kts 35°
2026-04-14 16:09 -26.77083 -53.49708 9485 ft 155 kts 25°
2026-04-14 16:09 -26.76135 -53.49121 9486 ft 156 kts 28°
2026-04-14 16:09 -26.75186 -53.48528 9484 ft 156 kts 27°
2026-04-14 16:10 -26.74227 -53.47943 9486 ft 157 kts 27°
2026-04-14 16:10 -26.73269 -53.47355 9484 ft 157 kts 28°
2026-04-14 16:10 -26.72306 -53.46766 9492 ft 158 kts 27°
2026-04-14 16:10 -26.71342 -53.46177 9488 ft 158 kts 27°
2026-04-14 16:11 -26.70376 -53.45583 9490 ft 158 kts 27°
2026-04-14 16:11 -26.69409 -53.44993 9485 ft 158 kts 27°
2026-04-14 16:11 -26.68446 -53.44409 9489 ft 158 kts 27°
2026-04-14 16:11 -26.67490 -53.43808 9487 ft 157 kts 27°
2026-04-14 16:12 -26.66536 -53.43231 9489 ft 159 kts 27°
2026-04-14 16:12 -26.65564 -53.42638 9490 ft 159 kts 27°
2026-04-14 16:12 -26.64593 -53.42043 9494 ft 159 kts 27°
2026-04-14 16:12 -26.63625 -53.41452 9490 ft 159 kts 27°
2026-04-14 16:13 -26.62658 -53.40861 9496 ft 158 kts 27°
2026-04-14 16:13 -26.61687 -53.40266 9490 ft 159 kts 27°
2026-04-14 16:13 -26.60720 -53.39671 9483 ft 158 kts 27°
2026-04-14 16:13 -26.59760 -53.39087 9489 ft 157 kts 27°
2026-04-14 16:14 -26.58800 -53.38498 9488 ft 157 kts 28°
2026-04-14 16:14 -26.58155 -53.38102 9489 ft 157 kts 27°
2026-04-14 16:14 -26.57191 -53.37520 9483 ft 158 kts 28°
2026-04-14 16:14 -26.56234 -53.36934 9488 ft 157 kts 26°
2026-04-14 16:15 -26.55274 -53.36348 9488 ft 158 kts 28°
2026-04-14 16:15 -26.54326 -53.35760 9490 ft 157 kts 28°
2026-04-14 16:15 -26.53365 -53.35174 9499 ft 158 kts 27°
2026-04-14 16:15 -26.52390 -53.34589 9490 ft 160 kts 27°
2026-04-14 16:16 -26.51422 -53.33994 9492 ft 158 kts 27°
2026-04-14 16:16 -26.50455 -53.33402 9493 ft 159 kts 28°
2026-04-14 16:16 -26.49486 -53.32812 9494 ft 159 kts 27°
2026-04-14 16:16 -26.48511 -53.32221 9494 ft 160 kts 27°
2026-04-14 16:17 -26.47538 -53.31626 9504 ft 160 kts 28°
2026-04-14 16:17 -26.46559 -53.31025 9498 ft 160 kts 27°
2026-04-14 16:17 -26.45584 -53.30436 9498 ft 159 kts 27°
2026-04-14 16:17 -26.44612 -53.29840 9492 ft 159 kts 28°
2026-04-14 16:18 -26.43637 -53.29244 9497 ft 160 kts 28°
2026-04-14 16:18 -26.42672 -53.28652 9494 ft 156 kts 27°
2026-04-14 16:18 -26.41713 -53.28077 9493 ft 157 kts 28°
2026-04-14 16:18 -26.40752 -53.27490 9492 ft 158 kts 27°
2026-04-14 16:19 -26.39784 -53.26900 9427 ft 161 kts 27°
2026-04-14 16:19 -26.38779 -53.26282 9247 ft 168 kts 28°
2026-04-14 16:19 -26.37744 -53.25652 9053 ft 171 kts 27°
2026-04-14 16:19 -26.36690 -53.25014 8855 ft 174 kts 28°
2026-04-14 16:20 -26.35631 -53.24365 8654 ft 173 kts 28°
2026-04-14 16:20 -26.34572 -53.23721 8454 ft 173 kts 27°
2026-04-14 16:20 -26.33516 -53.23081 8251 ft 172 kts 27°
2026-04-14 16:20 -26.32486 -53.22455 8060 ft 170 kts 27°
2026-04-14 16:21 -26.31449 -53.21826 7869 ft 170 kts 27°
2026-04-14 16:21 -26.30406 -53.21188 7674 ft 172 kts 27°
2026-04-14 16:21 -26.29363 -53.20551 7474 ft 171 kts 27°
2026-04-14 16:21 -26.28319 -53.19920 7271 ft 171 kts 28°
2026-04-14 16:22 -26.27275 -53.19286 7084 ft 171 kts 27°
2026-04-14 16:22 -26.26237 -53.18658 6881 ft 169 kts 28°
2026-04-14 16:22 -26.25214 -53.18034 6698 ft 167 kts 27°
2026-04-14 16:22 -26.24177 -53.17408 6499 ft 171 kts 27°
2026-04-14 16:23 -26.23142 -53.16771 6292 ft 168 kts 28°
2026-04-14 16:23 -26.22106 -53.16145 6099 ft 171 kts 27°
2026-04-14 16:23 -26.21060 -53.15512 5904 ft 171 kts 28°
2026-04-14 16:23 -26.20019 -53.14880 5703 ft 171 kts 27°
2026-04-14 16:24 -26.18981 -53.14253 5508 ft 169 kts 27°
2026-04-14 16:24 -26.17956 -53.13631 5305 ft 162 kts 28°
2026-04-14 16:24 -26.16990 -53.13048 5114 ft 154 kts 27°
2026-04-14 16:24 -26.16068 -53.12496 4959 ft 149 kts 27°
2026-04-14 16:25 -26.15170 -53.11947 4786 ft 146 kts 28°
2026-04-14 16:25 -26.14263 -53.11400 4608 ft 150 kts 27°
2026-04-14 16:25 -26.13340 -53.10833 4436 ft 150 kts 28°
2026-04-14 16:25 -26.12435 -53.10273 4202 ft 148 kts 28°
2026-04-14 16:26 -26.11561 -53.09716 4062 ft 144 kts 28°
2026-04-14 16:26 -26.10678 -53.09136 3867 ft 148 kts 29°
2026-04-14 16:26 -26.09826 -53.08576 3764 ft 127 kts 30°
2026-04-14 16:26 -26.09105 -53.08153 3596 ft 109 kts 16°
2026-04-14 16:27 -26.08402 -53.08371 3376 ft 110 kts 322°
2026-04-14 16:27 -26.07777 -53.08792 3096 ft 104 kts 358°
2026-04-14 16:27 -26.07229 -53.08427 2938 ft 96 kts 55°
2026-04-14 16:27 -26.06797 -53.07822 2684 ft 105 kts 38°
2026-04-14 16:28 -26.06372 -53.07216 2281 ft 97 kts 65°
2026-04-14 16:28 -26.06081 -53.06653 2114 ft 69 kts 56°
2026-04-14 16:28 -26.05968 -53.06445 2106 ft 0 kts 65°
2026-04-14 16:28 -26.05958 -53.06425 2105 ft 4 kts 297°
2026-04-14 16:29 -26.05976 -53.06463 2106 ft 14 kts 237°
2026-04-14 16:29 -26.06025 -53.06557 2109 ft 10 kts 261°
2026-04-14 16:29 -26.05993 -53.06590 2111 ft 5 kts 328°
2026-04-14 16:29 -26.05954 -53.06582 2112 ft 8 kts 40°
2026-04-14 16:30 -26.05930 -53.06573 2112 ft 1 kts 310°
2026-04-14 16:30 -26.05926 -53.06581 2113 ft 2 kts 278°
2026-04-14 16:30 -26.05932 -53.06586 2113 ft 0 kts 204°